Tiempo atmosférico en la estación meteorológica de Mogán, Puerto, Las Palmas (10 m.)



Fecha
DESCASC
Temp. máxima en grados centígrados (hora)
DESCASC
Temp. mínima en grados centígrados (hora)
DESCASC
Temp. media en grados centígrados
DESCASC
Racha de viento máxima en m/sg (hora)
DESCASC
Velocidad máxima media en intervalos de 10 minutos(hora)
DESCASC
Precipitaciones diarias en mm
DESCASC
Precipitaciones de 00:00 a 06:00 en mm
DESCASC
Precipitaciones de 06:00 a 12:00 en mm
DESCASC
Precipitaciones de 12:00 a 18:00 en mm
DESCASC
Precipitaciones de 18:00 a 24:00 en mm
DESCASC
19-01-2020 23 (12:10) 15 (03:20) 19 6.11 (05:20) 5.28 (05:20) 0 0 0 0 0
18-01-2020 23.4 (11:50) 14.4 (04:40) 18.9 10.28 (22:10) 6.67 (12:50) 0 0 0 0 0
17-01-2020 21.2 (16:30) 13.1 (07:00) 17.2 8.89 (11:30) 6.11 (13:00) 0 0 0 0 0
16-01-2020 22.4 (11:20) 14.9 (00:00) 18.6 8.89 (14:40) 7.5 (14:10) 0 0 0 0 0
15-01-2020 21.4 (12:30) 15 (00:00) 18.2 11.39 (18:50) 9.44 (14:00) 0 0 0 0 0
14-01-2020 21.1 (11:30) 16 (00:00) 18.6 10 (12:00) 8.06 (12:00) 0 0 0 0 0
13-01-2020 22.8 (10:50) 14.8 (00:00) 18.8 13.33 (12:40) 9.72 (14:50) 0 0 0 0 0
12-01-2020 22.4 (11:10) 14 (00:00) 18.2 8.33 (17:50) 5.28 (17:20) 0 0 0 0 0
11-01-2020 21.8 (12:10) 15 (00:00) 18.4 6.11 (21:10) 5 (16:50) 0 0 0 0 0
10-01-2020 -- (--) -- (--) -- 5.83 (14:10) 4.44 (14:10) 0 0 0 0 0
09-01-2020 -- (--) -- (--) -- 7.22 (14:50) 5.28 (14:30) 0 0 0 0 0
08-01-2020 21.7 (11:00) 14.1 (00:00) 17.9 6.67 (16:30) 5.28 (16:30) 0 0 0 0 0
07-01-2020 22.2 (11:20) 16 (00:00) 19.1 9.72 (10:40) 6.39 (10:30) 0 0 0 0 0
06-01-2020 23.7 (15:10) 15.5 (00:00) 19.6 7.78 (19:20) 5.83 (13:30) 0 0 0 0 0
05-01-2020 21.9 (12:00) 12.9 (00:00) 17.4 6.11 (19:00) 5 (08:00) 0 0 0 0 0
04-01-2020 21.6 (13:20) 13.9 (00:00) 17.8 8.89 (11:50) 5 (06:20) 0 0 0 0 0
03-01-2020 21.7 (16:10) 15.8 (00:00) 18.8 17.5 (11:30) 12.22 (12:20) 0 0 0 0 0
02-01-2020 20.5 (22:40) 17.3 (00:00) 18.9 17.78 (11:20) 11.11 (14:50) 0 0 0 0 0
01-01-2020 21.6 (02:00) 17 (00:00) 19.3 18.06 (11:20) 11.67 (11:30) 0 0 0 0 0
31-12-2019 22.8 (12:20) 14.7 (00:00) 18.7 12.22 (14:10) 9.17 (14:10) 0 0 0 0 0
30-12-2019 26.6 (11:40) 17.7 (00:00) 22.2 12.78 (11:20) 8.33 (12:20) 0 0 0 0 0
29-12-2019 26.2 (10:30) 18.3 (00:00) 22.3 15.83 (11:40) 9.44 (11:50) 0 0 0 0 0
28-12-2019 26.3 (12:00) 16.9 (00:00) 21.6 12.5 (12:30) 10 (13:50) 0 0 0 0 0
27-12-2019 24 (17:10) 17.5 (00:00) 20.8 6.94 (12:30) 5.28 (10:40) 0 0 0 0 0
26-12-2019 25.3 (04:30) 18.2 (00:00) 21.8 10.28 (09:50) 6.67 (14:30) 0 0 0 0 0
25-12-2019 27.5 (11:40) 19.3 (00:00) 23.4 11.39 (18:40) 8.61 (13:00) 0 0 0 0 0
24-12-2019 25.6 (12:10) 17.1 (00:00) 21.4 10.28 (13:20) 8.61 (13:20) 0 0 0 0 0
23-12-2019 24.2 (15:40) 16.1 (00:00) 20.2 7.5 (16:20) 5.28 (17:40) 0 0 0 0 0

Gráficas

Temp. máximas Temp. mínimas Temp. medias Precipitaciones Rachas de viento máximas Velocidades máximas media en intervalos de 10 minutos

Datos horarios

Fecha y hora oficial Temperatura (ºC) Velocidad del viento (km/h) Dirección del viento Racha (km/h) Dirección de racha Precipitación (mm) Presión (hPa) Tendencia (hPa) Humedad (%)
2020-01-21 22:00:00 17.1 3 Nordeste 10 Nordeste 0 -- -- 59
2020-01-21 21:00:00 17.5 6 Nordeste 14 Nordeste 0 -- -- 59
2020-01-21 20:00:00 17.6 10 Nordeste 16 Nordeste 0 -- -- 60
2020-01-21 19:00:00 17.9 9 Nordeste 18 Este 0 -- -- 64
2020-01-21 18:00:00 17.8 9 Nordeste 30 Este 0 -- -- 62
2020-01-21 17:00:00 18.1 15 Este 29 Este 0 -- -- 61
2020-01-21 16:00:00 18.8 18 Este 27 Sudeste 0 -- -- 60
2020-01-21 15:00:00 19.7 8 Noroeste 25 Oeste 0 -- -- 49
2020-01-21 14:00:00 20 7 Norte 22 Nordeste 0 -- -- 49
2020-01-21 13:00:00 18.9 8 Norte 26 Nordeste 0 -- -- 51
2020-01-21 12:00:00 19.2 7 Norte 29 Oeste 0 -- -- 54
2020-01-21 11:00:00 19 5 Noroeste 19 Norte 0 -- -- 53
2020-01-21 10:00:00 18.2 3 Norte 23 Noroeste 0 -- -- 53
2020-01-21 09:00:00 17.3 3 Noroeste 23 Nordeste 0 -- -- 55
2020-01-21 08:00:00 17 13 Nordeste 31 Nordeste 0 -- -- 55
2020-01-21 07:00:00 16.4 12 Nordeste 39 Nordeste 0 -- -- 55
2020-01-21 06:00:00 17 18 Norte 40 Norte 0 -- -- 54
2020-01-21 05:00:00 16.9 16 Norte 32 Norte 0 -- -- 56
2020-01-21 04:00:00 16.6 9 Noroeste 16 Norte 0 -- -- 61
2020-01-21 03:00:00 15 8 Norte 15 Norte 0 -- -- 65
2020-01-21 02:00:00 14.9 13 Norte 17 Norte 0 -- -- 63
2020-01-21 01:00:00 15.4 8 Norte 11 Noroeste 0 -- -- 61
2020-01-21 00:00:00 16.5 0 Calma 11 Norte 0 -- -- 59
2020-01-20 23:00:00 17 5 Norte 12 Noroeste 0 -- -- 57
2020-01-20 22:00:00 17.7 7 Noroeste 12 Norte 0 -- -- 58
2020-01-20 21:00:00 17.9 8 Nordeste 18 Nordeste 0 -- -- 56
2020-01-20 20:00:00 17.9 7 Nordeste 14 Este 0 -- -- 65
2020-01-20 19:00:00 18.3 9 Sur 18 Sudoeste 0 -- -- 70
2020-01-20 18:00:00 18.6 14 Sudoeste 19 Sudoeste 0 -- -- 70
2020-01-20 17:00:00 19.3 13 Sur 17 Sur 0 -- -- 67
2020-01-20 16:00:00 20.2 12 Sur 20 Sur 0 -- -- 66
2020-01-20 15:00:00 19.2 14 Sur 22 Sudeste 0 -- -- 66
2020-01-20 14:00:00 20.3 12 Sudeste 17 Sudeste 0 -- -- 62
2020-01-20 13:00:00 20.2 5 Sur 21 Oeste 0 -- -- 61
2020-01-20 12:00:00 21.8 7 Sudoeste 16 Oeste 0 -- -- 59
2020-01-20 11:00:00 21.2 5 Oeste 12 Norte 0 -- -- 62
2020-01-20 10:00:00 18.6 11 Nordeste 30 Nordeste 0 -- -- 60
2020-01-20 09:00:00 17.8 19 Nordeste 28 Nordeste 0 -- -- 60
2020-01-20 08:00:00 17.7 18 Nordeste 27 Nordeste 0 -- -- 65
2020-01-20 07:00:00 16.8 13 Nordeste 23 Nordeste 0 -- -- 72
2020-01-20 06:00:00 16 16 Norte 22 Nordeste 0 -- -- 77
2020-01-20 05:00:00 15.1 14 Norte 19 Norte 0 -- -- 78
2020-01-20 04:00:00 14.6 14 Norte 18 Norte 0 -- -- 78
2020-01-20 03:00:00 15.2 13 Norte 16 Norte 0 -- -- 78
2020-01-20 02:00:00 15.8 10 Norte 16 Norte 0 -- -- 78
2020-01-20 01:00:00 15.6 12 Norte 14 Norte 0 -- -- 78
2020-01-20 00:00:00 15.8 12 Norte 14 Norte 0 -- -- 78
2020-01-19 23:00:00 16.5 10 Norte 12 Norte 0 -- -- 80
2020-01-19 22:00:00 16.9 6 Norte 9 Norte 0 -- -- 78
2020-01-19 21:00:00 18.1 7 Oeste 13 Oeste 0 -- -- 77
2020-01-19 20:00:00 18.4 8 Oeste 14 Oeste 0 -- -- 75
2020-01-19 19:00:00 18.9 8 Oeste 13 Oeste 0 -- -- 70
2020-01-19 18:00:00 19.5 5 Oeste 16 Sudoeste 0 -- -- 67
2020-01-19 17:00:00 20.1 12 Sudoeste 17 Oeste 0 -- -- 66
2020-01-19 16:00:00 21.3 12 Oeste 18 Oeste 0 -- -- 63
2020-01-19 15:00:00 20.9 10 Oeste 20 Oeste 0 -- -- 65
2020-01-19 14:00:00 21 14 Oeste 20 Oeste 0 -- -- 65
2020-01-19 13:00:00 21.6 8 Oeste 12 Oeste 0 -- -- 60
2020-01-19 12:00:00 22.2 4 Sudoeste 13 Oeste 0 -- -- 60
2020-01-19 11:00:00 20.5 11 Oeste 14 Oeste 0 -- -- 56
2020-01-19 10:00:00 17.7 8 Norte 19 Norte 0 -- -- 33
2020-01-19 09:00:00 16.6 15 Norte 22 Norte 0 -- -- 33
2020-01-19 08:00:00 15.5 17 Norte 22 Norte 0 -- -- 35
2020-01-19 07:00:00 16.1 15 Norte 20 Norte 0 -- -- 36
2020-01-19 06:00:00 16 17 Norte 22 Norte 0 -- -- 36
2020-01-19 05:00:00 15.6 16 Norte 19 Norte 0 -- -- 38
2020-01-19 04:00:00 15.8 15 Norte 19 Norte 0 -- -- 39
2020-01-19 03:00:00 15.3 10 Norte 18 Norte 0 -- -- 42
2020-01-19 02:00:00 16 15 Norte 19 Norte 0 -- -- 44
2020-01-19 01:00:00 17 13 Norte 21 Norte 0 -- -- 47
2020-01-19 00:00:00 16.2 16 Norte 21 Norte 0 -- -- 51
2020-01-18 23:00:00 16.8 13 Norte 37 Norte 0 -- -- 54
2020-01-18 22:00:00 16.9 13 Norte 16 Norte 0 -- -- 54
2020-01-18 21:00:00 17.3 7 Norte 10 Norte 0 -- -- 55
2020-01-18 20:00:00 18.6 4 Norte 15 Oeste 0 -- -- 55
2020-01-18 19:00:00 19.4 13 Oeste 19 Noroeste 0 -- -- 57
2020-01-18 18:00:00 19.8 17 Oeste 23 Oeste 0 -- -- 57
2020-01-18 17:00:00 20.2 19 Oeste 23 Oeste 0 -- -- 56
2020-01-18 16:00:00 20.8 16 Oeste 23 Oeste 0 -- -- 56
2020-01-18 15:00:00 20.9 19 Oeste 29 Oeste 0 -- -- 52
2020-01-18 14:00:00 20.2 23 Oeste 31 Noroeste 0 -- -- 54
2020-01-18 13:00:00 20.7 23 Oeste 35 Oeste 0 -- -- 50
2020-01-18 12:00:00 21.6 12 Oeste 30 Sudeste 0 -- -- 48
2020-01-18 11:00:00 21.5 10 Sudoeste 23 Oeste 0 -- -- 47
2020-01-18 10:00:00 17.7 11 Norte 18 Nordeste 0 -- -- 33
2020-01-18 09:00:00 15.9 14 Norte 20 Norte 0 -- -- 36
2020-01-18 08:00:00 14.6 14 Norte 22 Norte 0 -- -- 37
2020-01-18 07:00:00 15.1 13 Norte 18 Norte 0 -- -- 39
2020-01-18 06:00:00 15.7 8 Norte 17 Norte 0 -- -- 39
2020-01-18 05:00:00 15.2 13 Norte 20 Norte 0 -- -- 42
2020-01-18 04:00:00 15.1 14 Norte 17 Norte 0 -- -- 43
2020-01-18 03:00:00 15.6 14 Norte 17 Norte 0 -- -- 44
2020-01-18 02:00:00 16.9 14 Norte 17 Nordeste 0 -- -- 47
2020-01-18 01:00:00 17.3 12 Norte 18 Norte 0 -- -- 48
2020-01-18 00:00:00 16.1 11 Norte 16 Norte 0 -- -- 53
2020-01-17 23:00:00 16.5 9 Norte 14 Nordeste 0 -- -- 55
2020-01-17 22:00:00 16.9 10 Norte 15 Norte 0 -- -- 56
2020-01-17 21:00:00 17 8 Norte 12 Norte 0 -- -- 56
2020-01-17 20:00:00 18.4 5 Noroeste 16 Oeste 0 -- -- 60
2020-01-17 19:00:00 18.9 12 Oeste 17 Oeste 0 -- -- 60
2020-01-17 18:00:00 19.3 13 Oeste 15 Oeste 0 -- -- 59
2020-01-17 17:00:00 20.8 11 Oeste 15 Oeste 0 -- -- 54
2020-01-17 16:00:00 20.7 12 Oeste 20 Oeste 0 -- -- 55
2020-01-17 15:00:00 20 15 Oeste 27 Oeste 0 -- -- 56
2020-01-17 14:00:00 19.5 22 Oeste 28 Oeste 0 -- -- 56
2020-01-17 13:00:00 19.9 22 Oeste 27 Oeste 0 -- -- 55
2020-01-17 12:00:00 19.2 21 Oeste 32 Oeste 0 -- -- 56
2020-01-17 11:00:00 20.1 11 Oeste 22 Oeste 0 -- -- 49
2020-01-17 10:00:00 16.2 13 Norte 20 Nordeste 0 -- -- 43
2020-01-17 09:00:00 14 17 Norte 20 Norte 0 -- -- 45
2020-01-17 08:00:00 13.1 15 Norte 18 Nordeste 0 -- -- 47
2020-01-17 07:00:00 13.8 15 Norte 18 Norte 0 -- -- 49
2020-01-17 06:00:00 14 15 Norte 20 Norte 0 -- -- 50
2020-01-17 05:00:00 14 15 Norte 20 Norte 0 -- -- 53
2020-01-17 04:00:00 14.5 15 Norte 21 Norte 0 -- -- 54
2020-01-17 03:00:00 14.5 15 Norte 19 Norte 0 -- -- 56
2020-01-17 02:00:00 14.9 12 Norte 14 Norte 0 -- -- 58
2020-01-17 01:00:00 16 9 Norte 14 Norte 0 -- -- 56
2020-01-17 00:00:00 15.7 12 Norte 14 Norte 0 -- -- 58
2020-01-16 23:00:00 16 10 Norte 13 Norte 0 -- -- 59
2020-01-16 22:00:00 16.3 10 Norte 13 Norte 0 -- -- 60
2020-01-16 21:00:00 17.2 6 Norte 10 Norte 0 -- -- 60
2020-01-16 20:00:00 18.1 7 Norte 9 Norte 0 -- -- 60
2020-01-16 19:00:00 18.4 6 Sur 12 Sudeste 0 -- -- 60
2020-01-16 18:00:00 19.7 7 Sur 15 Sudeste 0 -- -- 57
2020-01-16 17:00:00 19.2 13 Sudeste 23 Sudeste 0 -- -- 59
2020-01-16 16:00:00 19 20 Sudeste 27 Sudeste 0 -- -- 60
2020-01-16 15:00:00 19.6 22 Sudeste 32 Sudeste 0 -- -- 60
2020-01-16 14:00:00 20 27 Sudeste 30 Sudeste 0 -- -- 61
2020-01-16 13:00:00 19.8 23 Sudeste 27 Sudeste 0 -- -- 60
2020-01-16 12:00:00 20 19 Sudeste 23 Sudeste 0 -- -- 57
2020-01-16 11:00:00 21.6 5 Oeste 10 Norte 0 -- -- 40
2020-01-16 10:00:00 17.6 9 Norte 12 Norte 0 -- -- 39
2020-01-16 09:00:00 16.5 9 Nordeste 15 Nordeste 0 -- -- 40
2020-01-16 08:00:00 15.1 13 Nordeste 15 Nordeste 0 -- -- 40
2020-01-16 07:00:00 15.5 13 Norte 18 Norte 0 -- -- 40
2020-01-16 06:00:00 15.2 16 Norte 19 Norte 0 -- -- 40
2020-01-16 05:00:00 15.9 14 Norte 16 Norte 0 -- -- 41
2020-01-16 04:00:00 16.5 7 Norte 12 Norte 0 -- -- 39
2020-01-16 03:00:00 17.4 9 Norte 16 Norte 0 -- -- 39
2020-01-16 02:00:00 17.1 14 Norte 18 Norte 0 -- -- 39
2020-01-16 01:00:00 16.9 15 Norte 19 Nordeste 0 -- -- 39
2020-01-16 00:00:00 16.6 15 Nordeste 20 Nordeste 0 -- -- 40
2020-01-15 23:00:00 17 12 Nordeste 17 Norte 0 -- -- 44
2020-01-15 22:00:00 17.7 8 Nordeste 18 Nordeste 0 -- -- 45
2020-01-15 21:00:00 19.3 11 Nordeste 22 Nordeste 0 -- -- 38
2020-01-15 20:00:00 19.2 7 Este 30 Este 0 -- -- 40
2020-01-15 19:00:00 19.3 19 Sudeste 41 Sudeste 0 -- -- 44
2020-01-15 18:00:00 19.7 20 Sudeste 34 Sudeste 0 -- -- 50
2020-01-15 17:00:00 19.1 29 Sudeste 37 Sudeste 0 -- -- 62
2020-01-15 16:00:00 19.3 31 Sudeste 36 Sudeste 0 -- -- 59
2020-01-15 15:00:00 19.5 30 Sudeste 39 Sudeste 0 -- -- 56
2020-01-15 14:00:00 19.4 34 Sudeste 40 Sudeste 0 -- -- 56
2020-01-15 13:00:00 19.8 29 Sudeste 36 Este 0 -- -- 60
2020-01-15 12:00:00 20.8 25 Sudeste 34 Sudeste 0 -- -- 51
2020-01-15 11:00:00 21.1 19 Sudeste 27 Este 0 -- -- 46
2020-01-15 10:00:00 18.5 7 Norte 20 Norte 0 -- -- 38
2020-01-15 09:00:00 16.6 16 Nordeste 21 Norte 0 -- -- 40
2020-01-15 08:00:00 15.3 16 Nordeste 21 Nordeste 0 -- -- 42
2020-01-15 07:00:00 15.6 17 Norte 21 Nordeste 0 -- -- 42
2020-01-15 06:00:00 16.5 14 Nordeste 21 Nordeste 0 -- -- 40
2020-01-15 05:00:00 16.1 14 Nordeste 23 Nordeste 0 -- -- 41
2020-01-15 04:00:00 15.9 15 Nordeste 20 Nordeste 0 -- -- 42
2020-01-15 03:00:00 16.3 14 Nordeste 20 Nordeste 0 -- -- 40
2020-01-15 02:00:00 16.7 17 Nordeste 21 Norte 0 -- -- 42
2020-01-15 01:00:00 16.5 15 Norte 19 Nordeste 0 -- -- 42
2020-01-15 00:00:00 16.3 15 Norte 19 Nordeste 0 -- -- 43
2020-01-14 23:00:00 16.8 11 Nordeste 17 Nordeste 0 -- -- 44
2020-01-14 22:00:00 17.1 12 Nordeste 19 Este 0 -- -- 47
2020-01-14 21:00:00 18 8 Este 15 Este 0 -- -- 51
2020-01-14 20:00:00 18.1 9 Este 28 Este 0 -- -- 55
2020-01-14 19:00:00 18.1 21 Sudeste 32 Sudeste 0 -- -- 58
2020-01-14 18:00:00 18.8 24 Sudeste 29 Sudeste 0 -- -- 59
2020-01-14 17:00:00 19.5 21 Sudeste 26 Sudeste 0 -- -- 56
2020-01-14 16:00:00 20.2 21 Sudeste 29 Sudeste 0 -- -- 54
2020-01-14 15:00:00 20.1 25 Sudeste 31 Sudeste 0 -- -- 59
2020-01-14 14:00:00 20.4 21 Sudeste 29 Sudeste 0 -- -- 53
2020-01-14 13:00:00 20.5 24 Sudeste 34 Sudeste 0 -- -- 55
2020-01-14 12:00:00 20.4 29 Sudeste 36 Sudeste 0 -- -- 55
2020-01-14 11:00:00 20.8 23 Sudeste 33 Este 0 -- -- 53
2020-01-14 10:00:00 20.2 18 Este 31 Este 0 -- -- 55
2020-01-14 09:00:00 19.1 12 Este 24 Este 0 -- -- 59
2020-01-14 08:00:00 18.3 14 Este 26 Este 0 -- -- 60
2020-01-14 07:00:00 18.9 14 Nordeste 27 Este 0 -- -- 48
2020-01-14 06:00:00 18.7 12 Nordeste 23 Nordeste 0 -- -- 42
2020-01-14 05:00:00 18.2 13 Nordeste 22 Este 0 -- -- 39
2020-01-14 04:00:00 17.3 14 Nordeste 25 Nordeste 0 -- -- 39
2020-01-14 03:00:00 17.4 15 Nordeste 24 Nordeste 0 -- -- 38
2020-01-14 02:00:00 18 15 Nordeste 22 Nordeste 0 -- -- 38
2020-01-14 01:00:00 17.6 18 Nordeste 21 Nordeste 0 -- -- 38
2020-01-14 00:00:00 18.1 15 Nordeste 21 Norte 0 -- -- 38
2020-01-13 23:00:00 17.8 16 Norte 22 Nordeste 0 -- -- 39
2020-01-13 22:00:00 18.5 14 Nordeste 23 Nordeste 0 -- -- 39
2020-01-13 21:00:00 20.1 13 Nordeste 25 Este 0 -- -- 38
2020-01-13 20:00:00 20.2 9 Este 25 Este 0 -- -- 39
2020-01-13 19:00:00 20.2 10 Este 32 Este 0 -- -- 43
2020-01-13 18:00:00 20.4 18 Sudeste 37 Este 0 -- -- 49
2020-01-13 17:00:00 20.4 26 Este 39 Sudeste 0 -- -- 54
2020-01-13 16:00:00 19.7 32 Sudeste 41 Sudeste 0 -- -- 60
2020-01-13 15:00:00 19.9 32 Sudeste 41 Sudeste 0 -- -- 65
2020-01-13 14:00:00 20.7 30 Sudeste 39 Sudeste 0 -- -- 55
2020-01-13 13:00:00 21.1 32 Este 48 Este 0 -- -- 59
2020-01-13 12:00:00 21.6 33 Sudeste 42 Este 0 -- -- 55
2020-01-13 11:00:00 22.7 19 Sudeste 31 Este 0 -- -- 50
2020-01-13 10:00:00 21.1 6 Este 17 Norte 0 -- -- 50
2020-01-13 09:00:00 16 12 Norte 17 Norte 0 -- -- 54
2020-01-13 08:00:00 15.2 15 Norte 21 Norte 0 -- -- 53
2020-01-13 07:00:00 15.3 16 Norte 21 Norte 0 -- -- 52
2020-01-13 06:00:00 15 12 Norte 16 Nordeste 0 -- -- 53
2020-01-13 05:00:00 15.7 10 Norte 14 Norte 0 -- -- 50
2020-01-13 04:00:00 16.9 7 Norte 19 Norte 0 -- -- 50
2020-01-13 03:00:00 15.6 14 Norte 19 Norte 0 -- -- 54
2020-01-13 02:00:00 15.5 14 Norte 18 Norte 0 -- -- 56
2020-01-13 01:00:00 15.2 11 Norte 15 Norte 0 -- -- 60
2020-01-13 00:00:00 16.2 12 Norte 16 Norte 0 -- -- 61
2020-01-12 23:00:00 17.4 8 Norte 15 Norte 0 -- -- 60
2020-01-12 22:00:00 17 10 Norte 15 Sudoeste 0 -- -- 64
2020-01-12 21:00:00 18.2 4 Sudeste 15 Oeste 0 -- -- 64
2020-01-12 20:00:00 18.6 8 Noroeste 20 Noroeste 0 -- -- 61
2020-01-12 19:00:00 18.8 10 Norte 28 Oeste 0 -- -- 61
2020-01-12 18:00:00 19.6 15 Oeste 30 Oeste 0 -- -- 60
2020-01-12 17:00:00 19.8 15 Oeste 22 Oeste 0 -- -- 62
2020-01-12 16:00:00 20.2 15 Oeste 23 Oeste 0 -- -- 61
2020-01-12 15:00:00 20 15 Oeste 22 Oeste 0 -- -- 64
2020-01-12 14:00:00 20.8 13 Oeste 22 Oeste 0 -- -- 61
2020-01-12 13:00:00 19.8 16 Oeste 25 Oeste 0 -- -- 62
2020-01-12 12:00:00 20.7 8 Oeste 18 Sudoeste 0 -- -- 59
2020-01-12 11:00:00 21.9 3 Este 22 Este 0 -- -- 59
2020-01-12 10:00:00 19.6 14 Este 21 Este 0 -- -- 66
2020-01-12 09:00:00 15.9 14 Norte 21 Norte 0 -- -- 67
2020-01-12 08:00:00 14.9 16 Norte 20 Norte 0 -- -- 69
2020-01-12 07:00:00 14.7 14 Norte 20 Norte 0 -- -- 69
2020-01-12 06:00:00 14.5 14 Norte 17 Norte 0 -- -- 69
2020-01-12 05:00:00 15 14 Norte 19 Norte 0 -- -- 69
2020-01-12 04:00:00 14.9 14 Norte 17 Norte 0 -- -- 69
2020-01-12 03:00:00 15.4 15 Norte 19 Norte 0 -- -- 69
2020-01-12 02:00:00 16.3 13 Norte 16 Norte 0 -- -- 67
2020-01-12 01:00:00 16.9 10 Nordeste 16 Nordeste 0 -- -- 66
2020-01-12 00:00:00 17.1 11 Norte 17 Norte 0 -- -- 64
2020-01-11 23:00:00 18.1 8 Norte 12 Norte 0 -- -- 62
2020-01-11 22:00:00 18.7 2 Noroeste 22 Sudeste 0 -- -- 68
2020-01-11 21:00:00 18.8 13 Sudeste 21 Sudeste 0 -- -- 71
2020-01-11 20:00:00 18.7 13 Sudeste 19 Sudeste 0 -- -- 71
2020-01-11 19:00:00 18.9 3 Oeste 16 Sudeste 0 -- -- 70
2020-01-11 18:00:00 19.2 13 Sudeste 20 Sudeste 0 -- -- 68
2020-01-11 17:00:00 19.7 17 Sudeste 19 Sudeste 0 -- -- 67
2020-01-11 16:00:00 20.4 4 Sudeste 15 Sudeste 0 -- -- 66
2020-01-11 15:00:00 19.7 10 Sur 18 Sudoeste 0 -- -- 68
2020-01-11 14:00:00 19.8 10 Oeste 15 Oeste 0 -- -- 67
2020-01-11 13:00:00 20.1 5 Sudoeste 15 Sur 0 -- -- 67
2020-01-11 12:00:00 20.8 11 Sur 14 Sur 0 -- -- 68
2020-01-11 11:00:00 19.7 4 Nordeste 14 Nordeste 0 -- -- 66
2020-01-11 10:00:00 17.9 10 Norte 17 Nordeste 0 -- -- 66
2020-01-11 09:00:00 16.7 11 Norte 20 Nordeste 0 -- -- 66
2020-01-11 08:00:00 15.8 16 Norte 19 Nordeste 0 -- -- 69
2020-01-11 07:00:00 15.3 14 Norte 21 Norte 0 -- -- 70
2020-01-11 06:00:00 15.2 15 Norte 19 Norte 0 -- -- 70
2020-01-11 05:00:00 15.2 15 Norte 20 Norte 0 -- -- 70
2020-01-11 04:00:00 15.4 14 Norte 19 Norte 0 -- -- 70
2020-01-11 03:00:00 15.8 15 Norte 19 Norte 0 -- -- 70
2020-01-11 02:00:00 16.3 13 Norte 19 Norte 0 -- -- 71
2020-01-11 01:00:00 16.7 13 Norte 16 Norte 0 -- -- 71
2020-01-11 00:00:00 17.2 10 Norte 18 Norte 0 -- -- 70
2020-01-10 23:00:00 17.7 8 Norte 13 Norte 0 -- -- 66
2020-01-10 22:00:00 18.9 5 Norte 11 Norte 0 -- -- 72
2020-01-10 21:00:00 18.8 4 Nordeste 11 Este 0 -- -- 73
2020-01-10 20:00:00 19.1 10 Este 18 Este 0 -- -- 73
2020-01-10 19:00:00 19.2 4 Sudeste 8 Sudeste 0 -- -- 72
2020-01-10 18:00:00 20.4 5 Oeste 19 Sudoeste 0 -- -- 70
2020-01-10 17:00:00 20.8 9 Sudoeste 15 Sudoeste 0 -- -- 71
2020-01-10 16:00:00 21.2 8 Sur 18 Sudoeste 0 -- -- 70
2020-01-10 15:00:00 20.3 15 Sudoeste 21 Sudoeste 0 -- -- 74
2020-01-10 14:00:00 20.2 16 Sudoeste 20 Sudoeste 0 -- -- 72
2020-01-10 13:00:00 21.9 8 Sur -- -- -- -- -- 68
2020-01-10 12:00:00 -- 9 Sudoeste 12 Sudoeste 0 -- -- --
2020-01-10 11:00:00 -- 3 Sudoeste 12 Norte 0 -- -- --
2020-01-10 10:00:00 -- 8 Norte 19 Norte 0 -- -- --
2020-01-10 09:00:00 -- 15 Norte 20 Norte 0 -- -- --
2020-01-10 08:00:00 -- 15 Norte 20 Norte 0 -- -- --
2020-01-10 07:00:00 -- 13 Norte 18 Norte 0 -- -- --
2020-01-10 06:00:00 -- 14 Norte 20 Norte 0 -- -- --
2020-01-10 05:00:00 -- 12 Norte 17 Nordeste 0 -- -- --
2020-01-10 04:00:00 -- 14 Norte 18 Norte 0 -- -- --
2020-01-10 03:00:00 -- 10 Nordeste 16 Norte 0 -- -- --
2020-01-10 02:00:00 -- 13 Norte 18 Norte 0 -- -- --
2020-01-10 01:00:00 -- 9 Norte 12 Norte 0 -- -- --
2020-01-10 00:00:00 -- 8 Norte 13 Nordeste 0 -- -- --
2020-01-09 23:00:00 -- 8 Nordeste 12 Nordeste 0 -- -- --
2020-01-09 22:00:00 -- 3 Nordeste 13 Nordeste 0 -- -- --
2020-01-09 21:00:00 -- 5 Sudeste 9 Este 0 -- -- --
2020-01-09 20:00:00 -- 9 Este 13 Sudeste 0 -- -- --
2020-01-09 19:00:00 -- 8 Este 14 Este 0 -- -- --
2020-01-09 18:00:00 -- 5 Sur 13 Este 0 -- -- --
2020-01-09 17:00:00 -- 10 Sudeste 13 Sudeste 0 -- -- --
2020-01-09 16:00:00 -- 6 Sudeste 21 Sur 0 -- -- --
2020-01-09 15:00:00 -- 17 Sur 26 Sur 0 -- -- --
2020-01-09 14:00:00 -- 15 Sudoeste 18 Sudoeste 0 -- -- --
2020-01-09 13:00:00 -- 12 Sur 19 Sudeste 0 -- -- --
2020-01-09 12:00:00 -- 13 Sudeste 17 Sudeste 0 -- -- --
2020-01-09 11:00:00 -- 8 Sudeste 13 Norte 0 -- -- --
2020-01-09 10:00:00 16.5 11 Norte 19 Norte 0 -- -- 61
2020-01-09 09:00:00 14.7 15 Norte 19 Norte 0 -- -- 64
2020-01-09 08:00:00 13.7 13 Norte 18 Norte 0 -- -- 66
2020-01-09 07:00:00 14.5 13 Norte 19 Norte 0 -- -- 66
2020-01-09 06:00:00 14.5 15 Norte 20 Norte 0 -- -- 66
2020-01-09 05:00:00 14.9 14 Norte 18 Norte 0 -- -- 65
2020-01-09 04:00:00 15.1 15 Norte 19 Norte 0 -- -- 65
2020-01-09 03:00:00 15.3 14 Norte 18 Norte 0 -- -- 64
2020-01-09 02:00:00 15.5 13 Norte 17 Nordeste 0 -- -- 62
2020-01-09 01:00:00 16.2 10 Norte 13 Norte 0 -- -- 61
2020-01-09 00:00:00 15.8 8 Norte 11 Norte 0 -- -- 60
2020-01-08 23:00:00 16.9 5 Norte 8 Norte 0 -- -- 59
2020-01-08 22:00:00 17.2 5 Norte 8 Norte 0 -- -- 60
2020-01-08 21:00:00 17.8 6 Norte 9 Norte 0 -- -- 67
2020-01-08 20:00:00 19.1 4 Noroeste 21 Oeste 0 -- -- 66
2020-01-08 19:00:00 19.1 11 Sudoeste 22 Sudoeste 0 -- -- 66
2020-01-08 18:00:00 19.5 13 Sudoeste 22 Sudoeste 0 -- -- 66
2020-01-08 17:00:00 19.9 16 Sudoeste 24 Sudoeste 0 -- -- 65
2020-01-08 16:00:00 19.9 17 Sudoeste 23 Sudoeste 0 -- -- 66
2020-01-08 15:00:00 19.9 17 Sudoeste 21 Sudoeste 0 -- -- 62
2020-01-08 14:00:00 20.9 15 Oeste 22 Oeste 0 -- -- 58
2020-01-08 13:00:00 20.1 11 Oeste 17 Oeste 0 -- -- 59
2020-01-08 12:00:00 19.4 8 Oeste 15 Oeste 0 -- -- 56
2020-01-08 11:00:00 21.7 3 Sudoeste 6 Norte 0 -- -- 53
2020-01-08 10:00:00 17 4 Nordeste 17 Norte 0 -- -- 58
2020-01-08 09:00:00 15 14 Norte 17 Norte 0 -- -- 59
2020-01-08 08:00:00 14.2 15 Norte 18 Norte 0 -- -- 60
2020-01-08 07:00:00 14.3 13 Norte 15 Norte 0 -- -- 60
2020-01-08 06:00:00 14.9 12 Norte 15 Norte 0 -- -- 58
2020-01-08 05:00:00 15 10 Norte 17 Norte 0 -- -- 58
2020-01-08 04:00:00 15.3 14 Norte 18 Norte 0 -- -- 56
2020-01-08 03:00:00 15.3 13 Norte 16 Norte 0 -- -- 56
2020-01-08 02:00:00 15.7 10 Norte 15 Norte 0 -- -- 56
2020-01-08 01:00:00 15.8 13 Norte 16 Norte 0 -- -- 59
2020-01-08 00:00:00 16.1 12 Norte 15 Norte 0 -- -- 59
2020-01-07 23:00:00 16.5 10 Norte 14 Norte 0 -- -- 58
2020-01-07 22:00:00 17 12 Norte 14 Nordeste 0 -- -- 59
2020-01-07 21:00:00 17.9 4 Norte 12 Norte 0 -- -- 59
2020-01-07 20:00:00 19.3 7 Sudoeste 11 Oeste 0 -- -- 57
2020-01-07 19:00:00 19.3 7 Oeste 14 Oeste 0 -- -- 56
2020-01-07 18:00:00 19.9 12 Oeste 20 Oeste 0 -- -- 55
2020-01-07 17:00:00 20.4 13 Oeste 23 Oeste 0 -- -- 55
2020-01-07 16:00:00 21.2 15 Oeste 23 Oeste 0 -- -- 56
2020-01-07 15:00:00 21.2 16 Oeste 20 Oeste 0 -- -- 56
2020-01-07 14:00:00 20.5 14 Oeste 22 Oeste 0 -- -- 57
2020-01-07 13:00:00 20.1 16 Oeste 24 Oeste 0 -- -- 60
2020-01-07 12:00:00 20 14 Oeste 29 Este 0 -- -- 57
2020-01-07 11:00:00 21.4 14 Este 35 Sudeste 0 -- -- 49
2020-01-07 10:00:00 19.6 20 Sudeste 28 Sudeste 0 -- -- 58
2020-01-07 09:00:00 18.9 16 Sudeste 24 Sudeste 0 -- -- 59
2020-01-07 08:00:00 17.7 5 Nordeste 15 Nordeste 0 -- -- 61
2020-01-07 07:00:00 17.2 9 Norte 15 Nordeste 0 -- -- 62
2020-01-07 06:00:00 17.9 4 Nordeste 14 Norte 0 -- -- 62
2020-01-07 05:00:00 16.5 10 Norte 15 Norte 0 -- -- 62
2020-01-07 04:00:00 18.5 4 Nordeste 16 Este 0 -- -- 60
2020-01-07 03:00:00 18.5 5 Este 13 Oeste 0 -- -- 60
2020-01-07 02:00:00 18.8 7 Oeste 17 Oeste 0 -- -- 59
2020-01-07 01:00:00 18.9 5 Noroeste 12 Noroeste 0 -- -- 56
2020-01-07 00:00:00 19.3 6 Noroeste 14 Nordeste 0 -- -- 55
2020-01-06 23:00:00 19.5 9 Norte 22 Norte 0 -- -- 55
2020-01-06 22:00:00 19.5 4 Norte 18 Oeste 0 -- -- 58
2020-01-06 21:00:00 19.3 12 Oeste 21 Norte 0 -- -- 60
2020-01-06 20:00:00 19.9 11 Norte 28 Norte 0 -- -- 54
2020-01-06 19:00:00 20.3 13 Norte 24 Norte 0 -- -- 54
2020-01-06 18:00:00 21.3 3 Sudeste 15 Este 0 -- -- 59
2020-01-06 17:00:00 21.3 13 Sudeste 21 Sudeste 0 -- -- 58
2020-01-06 16:00:00 21.5 7 Sudeste 12 Sudeste 0 -- -- 56
2020-01-06 15:00:00 23.6 10 Sudeste 13 Sudeste 0 -- -- 55
2020-01-06 14:00:00 21.8 6 Sudoeste 26 Sur 0 -- -- 57
2020-01-06 13:00:00 20.9 17 Sur 23 Sur 0 -- -- 62
2020-01-06 12:00:00 19.9 14 Sudeste 21 Sur 0 -- -- 63
2020-01-06 11:00:00 20.7 12 Sur 17 Sudoeste 0 -- -- 62
2020-01-06 10:00:00 20.4 0 Calma 10 Este 0 -- -- 62
2020-01-06 09:00:00 18.9 7 Nordeste 21 Este 0 -- -- 62